Location: Omaha
(41.2590°N, 95.9380°W)
Time: 15:13:31
(UTC-05:00)

Vanguard 2 - All Passes

Search period start: 18 October 2017 00:00
Search period end: 28 October 2017 00:00
Orbit: 554 x 2939 km, 32.9° (Epoch: 17 October)

Date Brightness Start Highest point End Pass type
(mag) Time Alt. Az. Time Alt. Az. Time Alt. Az.
18 Oct - 07:16:01 10° S 07:24:41 17° SSE 07:31:53 10° ESE visible
18 Oct - 09:22:33 10° SW 09:34:55 35° SSE 09:43:12 10° E daylight
18 Oct - 11:33:35 10° WSW 11:44:34 47° S 11:51:14 10° ESE daylight
18 Oct - 13:45:32 10° W 13:53:07 37° SSW 13:58:04 10° SE daylight
18 Oct - 15:58:36 10° SW 16:00:20 11° SW 16:01:54 10° SSW daylight
19 Oct - 07:31:31 10° SSW 07:42:46 23° SSE 07:51:33 10° ESE daylight
19 Oct - 09:40:00 10° SW 09:53:03 41° SSE 10:01:31 10° E daylight
19 Oct - 11:51:44 10° WSW 12:02:39 49° S 12:09:15 10° ESE daylight
19 Oct - 14:03:54 10° W 14:10:59 31° SSW 14:15:44 10° SE daylight
20 Oct - 05:47:35 10° SSE 05:50:27 11° SE 05:53:12 10° SE visible
20 Oct - 07:47:53 10° SSW 08:00:52 30° SSE 08:10:31 10° E daylight
20 Oct - 09:57:44 10° SW 10:11:12 47° S 10:19:42 10° E daylight
20 Oct - 12:09:57 10° WSW 12:20:42 49° S 12:27:12 10° ESE daylight
20 Oct - 14:22:25 10° W 14:28:45 25° SSW 14:33:12 10° SSE daylight
21 Oct - 05:59:29 10° S 06:08:25 16° SE 06:16:20 10° ESE visible
21 Oct - 08:04:48 10° SW 08:18:58 36° SSE 08:29:07 10° E daylight
21 Oct - 10:15:40 10° WSW 10:29:20 52° S 10:37:48 10° E daylight
21 Oct - 12:28:15 10° W 12:38:42 46° SSW 12:45:04 10° ESE daylight
21 Oct - 14:41:09 10° WSW 14:46:25 20° SW 14:50:21 10° S daylight
22 Oct - 06:14:34 10° S 06:26:24 23° SE 06:36:23 10° ESE visible
22 Oct - 08:22:06 10° SW 08:37:05 43° SSE 08:47:30 10° E daylight
22 Oct - 10:33:46 10° WSW 10:47:28 54° S 10:55:52 10° ESE daylight
22 Oct - 12:46:37 10° W 12:56:38 42° SSW 13:02:51 10° SE daylight
22 Oct - 15:00:27 10° WSW 15:03:59 14° SW 15:06:53 10° S daylight
23 Oct - 06:30:41 10° SSW 06:44:22 29° SSE 06:55:35 10° E visible
23 Oct - 08:39:42 10° SW 08:55:12 49° SSE 09:05:45 10° E daylight
23 Oct - 10:51:59 10° WSW 11:05:35 55° S 11:13:51 10° ESE daylight
23 Oct - 13:05:03 10° W 13:14:28 36° SSW 13:20:29 10° SE daylight
24 Oct - 04:44:05 10° SSE 04:51:54 14° SE 04:59:20 10° ESE visible
24 Oct - 06:47:23 10° SSW 07:02:23 36° SSE 07:14:19 10° E visible
24 Oct - 08:57:32 10° WSW 09:13:21 54° S 09:23:54 10° E daylight
24 Oct - 11:10:16 10° W 11:23:39 54° S 11:31:47 10° ESE daylight
24 Oct - 13:23:37 10° W 13:32:11 29° SSW 13:37:55 10° SSE daylight
25 Oct - 04:58:29 10° S 05:09:42 21° SE 05:20:08 10° E visible
25 Oct - 07:04:31 10° SW 07:20:25 42° SSE 07:32:49 10° E visible
25 Oct - 09:15:33 10° WSW 09:31:31 57° S 09:42:00 10° E daylight
25 Oct - 11:28:37 10° W 11:41:39 51° SSW 11:49:39 10° ESE daylight
25 Oct - 13:42:23 10° W 13:49:47 23° SW 13:55:02 10° SSE daylight
26 Oct - 05:14:14 10° SSW 05:27:31 27° SE 05:39:41 10° E visible
26 Oct - 07:21:58 10° SW 07:38:30 49° SSE 07:51:08 10° E visible
26 Oct - 09:33:42 10° WSW 09:49:40 59° S 10:00:03 10° ESE daylight
26 Oct - 11:47:02 10° W 11:59:34 45° SSW 12:07:22 10° SE daylight
26 Oct - 14:01:36 10° W 14:07:15 17° SW 14:11:39 10° S daylight
27 Oct - 03:31:01 10° SSE 03:35:21 11° SE 03:39:42 10° ESE visible
27 Oct - 05:30:41 10° SSW 05:45:23 34° SSE 05:58:40 10° E visible
27 Oct - 07:39:40 10° SW 07:56:38 54° SSE 08:09:22 10° E daylight
27 Oct - 09:51:58 10° WSW 10:07:49 59° S 10:18:03 10° ESE daylight
27 Oct - 12:05:30 10° W 12:17:23 39° SSW 12:24:58 10° SE daylight
27 Oct - 14:22:07 10° WSW 14:24:39 11° SW 14:26:54 10° SSW daylight
